This demonstration page uses our WeatherBlox Daily Observations layout. Learn more.

Left ArrowRight Arrow

39.51506, -84.39828

Hourly Observations for January 25, 2019

Temp ( °F °C ) Dew Point ( °F °C ) Humidity (%) Winds ( mph kmh ) Pressure ( in mb ) Visibility ( mi km ) Precip ( " mm )
12:15 am 00:15 Cloudy 25 -3.7 17 -8.5 70 70 W 15 24 30.09 1019 10 16 0.00 0.00
12:35 am 00:35 Partly Cloudy 24 -4.6 16 -9.1 71 71 W 21 33 30.09 1019 10 16 0.00 0.00
12:55 am 00:55 Mostly Cloudy with Light Snow 24 -4.6 15 -9.7 68 68 W 16 26 30.12 1020 10 16 0.00 0.00
1:15 am 01:15 Cloudy 22 -5.3 12 -11.2 64 64 W 18 30 30.12 1020 10 16 0.00 0.00
1:35 am 01:35 Cloudy with Light Snow 22 -5.3 13 -10.8 66 66 W 15 24 30.12 1020 10 16 0.00 0.00
1:55 am 01:55 Cloudy with Light Snow 22 -5.5 14 -9.8 72 72 W 18 30 30.15 1021 10 16 0.00 0.00
2:15 am 02:15 Mostly Cloudy 21 -6.2 11 -11.9 64 64 W 18 30 30.18 1022 10 16 0.00 0.00
2:35 am 02:35 Cloudy with Light Snow 20 -6.5 11 -11.7 67 67 W 16 26 30.18 1022 10 16 0.00 0.00
2:55 am 02:55 Windy with Snow Likely 19 -7 11 -11.8 69 69 WSW 21 33 30.18 1022 10 16 0.00 0.00
3:15 am 03:15 Cloudy with Light Snow 19 -7.4 10 -12.2 69 69 WSW 16 26 30.21 1023 10 16 0.00 0.00
3:35 am 03:35 Mostly Cloudy 17 -8.1 8 -13.2 67 67 W 14 22 30.21 1023 10 16 0.00 0.00
3:55 am 03:55 Cloudy with Light Snow 17 -8.1 9 -12.6 70 70 W 16 26 30.21 1023 10 16 0.00 0.00
4:15 am 04:15 Cloudy with Light Snow 17 -8.5 9 -12.7 72 72 W 13 20 30.24 1024 10 16 0.00 0.00
4:35 am 04:35 Cloudy with Light Snow 16 -8.9 8 -13.4 70 70 W 12 19 30.24 1024 10 16 0.00 0.00
4:55 am 04:55 Cloudy 15 -9.5 5 -14.8 66 66 WSW 16 26 30.24 1024 10 16 0.00 0.00
5:15 am 05:15 Partly Cloudy 14 -10.1 5 -14.9 68 68 WSW 16 26 30.24 1024 10 16 0.00 0.00
5:35 am 05:35 Mostly Cloudy 14 -10.2 5 -14.9 69 69 W 15 24 30.27 1025 10 16 0.00 0.00
5:55 am 05:55 Clear 13 -10.6 4 -15.8 66 66 W 16 26 30.27 1025 10 16 0.00 0.00
6:15 am 06:15 Clear 13 -10.8 3 -15.9 66 66 W 14 22 30.27 1025 10 16 0.00 0.00
6:35 am 06:35 Clear 12 -11 3 -16 67 67 W 9 15 30.27 1025 10 16 0.00 0.00
6:55 am 06:55 Partly Cloudy 12 -11.2 3 -16.2 67 67 W 18 30 30.30 1026 10 16 0.00 0.00
7:15 am 07:15 Clear 11 -11.6 1 -17.2 64 64 W 13 20 30.30 1026 10 16 0.00 0.00
7:35 am 07:35 Clear 11 -11.8 2 -16.6 68 68 W 14 22 30.33 1027 10 16 0.00 0.00
7:55 am 07:55 Sunny 10 -12 1 -17.5 64 64 WSW 16 26 30.33 1027 10 16 0.00 0.00
8:15 am 08:15 Sunny 10 -12.1 1 -17 67 67 WSW 12 19 30.33 1027 10 16 0.00 0.00
8:35 am 08:35 Sunny 11 -11.8 1 -17.2 65 65 W 10 17 30.33 1027 10 16 0.00 0.00
8:55 am 08:55 Sunny 11 -11.6 3 -16.1 70 70 W 8 13 30.36 1028 10 16 0.00 0.00
9:15 am 09:15 Sunny 11 -11.5 2 -16.4 67 67 WNW 12 19 30.36 1028 10 16 0.00 0.00
9:35 am 09:35 Sunny 12 -11.1 2 -16.6 64 64 W 9 15 30.36 1028 10 16 0.00 0.00
9:55 am 09:55 Sunny 12 -10.9 2 -16.8 62 62 WNW 9 15 30.36 1028 10 16 0.00 0.00
10:15 am 10:15 Sunny 13 -10.4 3 -16.2 63 63 W 12 19 30.36 1028 N/A 0.10 2.54
10:35 am 10:35 Sunny 13 -10.4 2 -16.8 60 60 W 8 13 30.36 1028 10 16 0.10 2.54
10:55 am 10:55 Sunny 14 -9.8 2 -16.9 57 57 WSW 12 19 30.39 1029 10 16 0.10 2.54
11:15 am 11:15 Sunny 14 -9.9 2 -16.7 58 58 SW 9 15 30.39 1029 10 16 0.00 0.00
11:35 am 11:35 Sunny 15 -9.2 2 -16.8 54 54 W 9 15 30.36 1028 10 16 0.00 0.00
11:55 am 11:55 Sunny 16 -8.9 1 -17.4 51 51 W 13 20 30.39 1029 10 16 0.00 0.00
12:15 pm 12:15 Sunny 17 -8.4 2 -16.6 52 52 SW 14 22 30.36 1028 10 16 0.00 0.00
12:35 pm 12:35 Sunny 18 -7.8 4 -15.5 54 54 SW 12 19 30.36 1028 10 16 0.00 0.00
12:55 pm 12:55 Sunny 19 -7.4 3 -16 51 51 WSW 15 24 30.36 1028 10 16 0.00 0.00
1:15 pm 13:15 Sunny 19 -7.3 3 -15.9 51 51 SW 10 17 30.36 1028 10 16 0.00 0.00
1:35 pm 13:35 Sunny 19 -7 3 -16.2 48 48 W 10 17 30.33 1027 10 16 0.00 0.00
1:55 pm 13:55 Sunny 20 -6.4 2 -16.5 45 45 SSW 16 26 30.33 1027 10 16 0.00 0.00
2:15 pm 14:15 Sunny 21 -6.3 2 -16.7 44 44 SSW 12 19 30.33 1027 10 16 0.00 0.00
2:35 pm 14:35 Sunny 21 -6.1 2 -16.6 44 44 WSW 12 19 30.33 1027 10 16 0.00 0.00
2:55 pm 14:55 Sunny 22 -5.8 3 -16.3 44 44 SW 12 19 30.33 1027 10 16 0.00 0.00
3:15 pm 15:15 Sunny 22 -5.5 3 -16.1 43 43 SW 13 20 30.30 1026 10 16 0.00 0.00
3:35 pm 15:35 Sunny 22 -5.4 3 -15.9 44 44 SSW 13 20 30.30 1026 10 16 0.00 0.00
3:55 pm 15:55 Sunny 22 -5.4 3 -16.1 43 43 SSW 13 20 30.30 1026 10 16 0.00 0.00
4:15 pm 16:15 Sunny 23 -5.2 3 -16 43 43 WSW 12 19 30.30 1026 10 16 0.00 0.00
4:35 pm 16:35 Sunny 23 -5.2 3 -16.1 42 42 WSW 12 19 30.30 1026 10 16 0.00 0.00
4:55 pm 16:55 Sunny 22 -5.3 2 -16.5 41 41 SW 14 22 30.30 1026 10 16 0.00 0.00
5:15 pm 17:15 Sunny 22 -5.5 3 -16.1 43 43 SW 10 17 30.30 1026 10 16 0.00 0.00
5:35 pm 17:35 Sunny 21 -6 4 -15.4 48 48 SSW 13 20 30.27 1025 10 16 0.00 0.00
5:55 pm 17:55 Clear 21 -6.3 4 -15.7 48 48 SW 12 19 30.27 1025 10 16 0.00 0.00
6:15 pm 18:15 Clear 21 -6.2 4 -15.8 47 47 SSW 9 15 30.27 1025 10 16 0.00 0.00
6:35 pm 18:35 Clear 21 -6 4 -15.7 47 47 SSW 9 15 30.27 1025 10 16 0.00 0.00
6:55 pm 18:55 Clear 21 -6.3 6 -14.7 52 52 SW 8 13 30.27 1025 10 16 0.00 0.00
7:15 pm 19:15 Mostly Cloudy 20 -6.4 7 -14.1 55 55 SSW 8 13 30.27 1025 10 16 0.00 0.00
7:35 pm 19:35 Mostly Cloudy 21 -6.2 6 -14.5 52 52 SSW 7 11 30.27 1025 10 16 0.00 0.00
7:55 pm 19:55 Mostly Cloudy 21 -6.2 7 -13.9 55 55 SW 7 11 30.27 1025 10 16 0.00 0.00
8:15 pm 20:15 Cloudy 22 -5.6 7 -13.7 53 53 SW 8 13 30.27 1025 10 16 0.00 0.00
8:35 pm 20:35 Partly Cloudy 21 -6.1 8 -13.6 56 56 SSW 8 13 30.27 1025 10 16 0.00 0.00
8:55 pm 20:55 Partly Cloudy 21 -6.1 7 -14 54 54 SSW 9 15 30.24 1024 10 16 0.00 0.00
9:15 pm 21:15 Cloudy 22 -5.7 7 -13.7 54 54 SSW 7 11 30.24 1024 10 16 0.00 0.00
9:35 pm 21:35 Cloudy 22 -5.5 7 -13.7 53 53 SSW 5 7 30.21 1023 10 16 0.00 0.00
9:55 pm 21:55 Cloudy 22 -5.4 8 -13.5 53 53 WSW 6 9 30.27 1025 10 16 0.00 0.00
10:15 pm 22:15 Cloudy 22 -5.5 8 -13.1 55 55 SW 6 9 30.27 1025 10 16 0.00 0.00
10:35 pm 22:35 Cloudy 22 -5.4 8 -13.3 54 54 SW 6 9 30.21 1023 10 16 0.00 0.00
10:55 pm 22:55 Cloudy 22 -5.3 8 -13.1 55 55 SSW 8 13 30.21 1023 10 16 0.00 0.00
11:15 pm 23:15 Cloudy 22 -5.3 9 -12.7 56 56 SW 7 11 30.21 1023 10 16 0.00 0.00
11:35 pm 23:35 Cloudy 22 -5.4 9 -13 56 56 SW 7 11 30.21 1023 10 16 0.00 0.00
11:55 pm 23:55 Cloudy 23 -5.2 10 -12.5 57 57 SSW 7 11 30.21 1023 10 16 0.00 0.00

Powered by AerisWeather